Location: Crescent
(42.8242°N, 73.7329°W)
Time: 08:20:00
(UTC+00:00)

Vanguard 1 Rocket - Pass Details

Date: 23 February 2026
Orbit: 653 x 4214 km, 34.3° (Epoch: 12 March)

Event Time Altitude Azimuth Distance (km) Brightness Sun altitude
Rises 15:17:12 0° 201° (SSW) 3,305 10.7 31.7°
Reaches altitude 10° 15:20:03 10° 181° (S) 2,648 10.8 32.0°
Maximum altitude 15:24:20 19° 138° (SE) 2,537 11.5 32.4°
Drops below altitude 10° 15:30:18 10° 98° (E) 3,905 11.2 32.9°
Sets 15:35:52 0° 84° (E) 5,617 11.7 33.4°
